| time (UTC) | temp F | wind direction | speed knots | gust knots | rain 1hr in | rain 24hr in | rain mn in | humidity % | barometer mb |
| 20260507124552 | 65 | 233 | 7.0 | 13.0 | 0.00 | 0.02 | 0.02 | 65 | 1012.3 |
| 20260507123043 | 65 | 128 | 7.8 | 13.9 | 0.00 | 0.02 | 0.02 | 63 | 1012.0 |
| 20260507121602 | 65 | 205 | 7.8 | 13.9 | 0.00 | 0.02 | 0.02 | 64 | 1012.2 |
| 20260507120055 | 65 | 188 | 7.0 | 13.0 | 0.00 | 0.02 | 0.02 | 65 | 1012.5 |
| 20260507114604 | 64 | 167 | 7.8 | 14.8 | 0.00 | 0.02 | 0.02 | 66 | 1012.3 |
| 20260507113045 | 65 | 159 | 7.8 | 14.8 | 0.00 | 0.02 | 0.02 | 65 | 1012.5 |
| 20260507111544 | 65 | 217 | 11.3 | 17.4 | 0.00 | 0.02 | 0.02 | 64 | 1012.5 |
| 20260507110043 | 66 | 219 | 6.1 | 13.0 | 0.00 | 0.02 | 0.02 | 61 | 1012.2 |
| 20260507104543 | 67 | 192 | 9.6 | 15.6 | 0.00 | 0.02 | 0.02 | 60 | 1012.3 |
| 20260507103043 | 66 | 199 | 9.6 | 14.8 | 0.00 | 0.02 | 0.02 | 60 | 1012.1 |
| 20260507101546 | 67 | 214 | 7.0 | 13.0 | 0.00 | 0.02 | 0.02 | 60 | 1012.1 |
| 20260507100044 | 67 | 206 | 8.7 | 17.4 | 0.00 | 0.02 | 0.02 | 61 | 1012.1 |
| 20260507094544 | 65 | 200 | 7.8 | 17.4 | 0.00 | 0.02 | 0.02 | 63 | 1011.9 |
| 20260507093049 | 66 | 195 | 8.7 | 13.9 | 0.00 | 0.02 | 0.02 | 62 | 1012.0 |
| 20260507091552 | 64 | 213 | 12.2 | 17.4 | 0.00 | 0.02 | 0.02 | 61 | 1011.9 |
| 20260507090047 | 66 | 208 | 10.4 | 18.2 | 0.00 | 0.02 | 0.02 | 62 | 1011.7 |
| 20260507084547 | 65 | 217 | 11.3 | 16.5 | 0.00 | 0.02 | 0.02 | 62 | 1011.4 |
| 20260507083044 | 65 | 245 | 13.9 | 18.2 | 0.00 | 0.02 | 0.02 | 62 | 1011.4 |
| 20260507081548 | 65 | 240 | 13.0 | 18.2 | 0.00 | 0.02 | 0.02 | 63 | 1011.3 |
| 20260507080051 | 64 | 245 | 12.2 | 19.1 | 0.00 | 0.02 | 0.02 | 64 | 1011.5 |
| 20260507074600 | 64 | 216 | 12.2 | 18.2 | 0.00 | 0.02 | 0.02 | 64 | 1011.4 |
| 20260507073043 | 64 | 236 | 11.3 | 14.8 | 0.00 | 0.02 | 0.02 | 65 | 1011.3 |
| 20260507071543 | 63 | 242 | 7.0 | 12.2 | 0.00 | 0.02 | 0.02 | 69 | 1011.2 |
| 20260507070043 | 62 | 233 | 8.7 | 13.9 | 0.00 | 0.02 | 0.02 | 72 | 1011.2 |
| 20260507064550 | 60 | 234 | 7.8 | 14.8 | 0.00 | 0.02 | 0.02 | 73 | 1011.1 |
| 20260507063054 | 60 | 229 | 7.8 | 13.9 | 0.00 | 0.02 | 0.02 | 74 | 1011.0 |
| 20260507061544 | 59 | 222 | 7.0 | 12.2 | 0.00 | 0.02 | 0.02 | 77 | 1010.8 |
| 20260507060045 | 58 | 224 | 10.4 | 14.8 | 0.00 | 0.02 | 0.02 | 76 | 1010.9 |
| 20260507054604 | 58 | 221 | 7.0 | 12.2 | 0.00 | 0.02 | 0.02 | 77 | 1010.9 |
| 20260507053052 | 57 | 215 | 7.0 | 12.2 | 0.00 | 0.02 | 0.02 | 77 | 1010.6 |
| 20260507051542 | 57 | 217 | 7.0 | 14.8 | 0.00 | 0.02 | 0.02 | 77 | 1010.6 |
| 20260507050054 | 56 | 228 | 8.7 | 13.9 | 0.00 | 0.02 | 0.02 | 78 | 1010.6 |
| 20260507044549 | 56 | 211 | 7.8 | 13.9 | 0.00 | 0.02 | 0.02 | 79 | 1010.3 |
| 20260507043050 | 55 | 205 | 7.0 | 12.2 | 0.00 | 0.02 | 0.02 | 80 | 1010.2 |
| 20260507041548 | 54 | 219 | 7.0 | 10.4 | 0.00 | 0.02 | 0.02 | 80 | 1010.2 |
| 20260507040051 | 54 | 212 | 7.0 | 10.4 | 0.00 | 0.02 | 0.02 | 81 | 1010.2 |
| 20260507034555 | 54 | 238 | 5.2 | 8.7 | 0.00 | 0.02 | 0.02 | 81 | 1010.3 |
| 20260507033051 | 54 | 219 | 5.2 | 7.8 | 0.00 | 0.02 | 0.02 | 81 | 1010.4 |
| 20260507031605 | 55 | 214 | 6.1 | 9.6 | 0.00 | 0.02 | 0.02 | 80 | 1010.4 |
| 20260507030055 | 55 | 219 | 5.2 | 7.8 | 0.00 | 0.02 | 0.02 | 81 | 1010.6 |
| 20260507024553 | 55 | 215 | 5.2 | 8.7 | 0.00 | 0.02 | 0.02 | 80 | 1010.7 |
| 20260507023054 | 56 | 238 | 5.2 | 9.6 | 0.00 | 0.02 | 0.02 | 80 | 1010.8 |
| 20260507021547 | 56 | 231 | 6.1 | 9.6 | 0.00 | 0.02 | 0.02 | 81 | 1010.8 |
| 20260507020050 | 56 | 221 | 6.1 | 10.4 | 0.00 | 0.02 | 0.02 | 81 | 1011.0 |
| 20260507014550 | 56 | 213 | 7.8 | 13.0 | 0.00 | 0.02 | 0.02 | 82 | 1010.9 |
| 20260507013045 | 56 | 215 | 7.8 | 13.0 | 0.00 | 0.02 | 0.02 | 84 | 1010.8 |
| 20260507011549 | 56 | 215 | 7.0 | 13.0 | 0.00 | 0.02 | 0.02 | 84 | 1010.7 |
| 20260507010044 | 56 | 190 | 7.0 | 13.0 | 0.00 | 0.02 | 0.02 | 85 | 1010.1 |
| 20260507004544 | 55 | 193 | 7.0 | 9.6 | 0.00 | 0.02 | 0.02 | 84 | 1009.7 |
| 20260507003051 | 55 | 216 | 7.0 | 12.2 | 0.00 | 0.02 | 0.02 | 84 | 1009.9 |
| 20260507001551 | 56 | 216 | 8.7 | 13.0 | 0.00 | 0.02 | 0.02 | 84 | 1010.3 |
| 20260507000051 | 55 | 236 | 9.6 | 15.6 | 0.00 | 0.02 | 0.02 | 85 | 1010.2 |
| 20260506234550 | 56 | 233 | 12.2 | 16.5 | 0.02 | 0.02 | 0.02 | 84 | 1010.3 |
| 20260506233108 | 56 | 223 | 7.0 | 12.2 | 0.02 | 0.02 | 0.02 | 84 | 1010.6 |
| 20260506231556 | 56 | 232 | 10.4 | 20.0 | 0.02 | 0.02 | 0.02 | 83 | 1010.9 |
| 20260506230053 | 58 | 223 | 13.9 | 28.7 | 0.01 | 0.01 | 0.01 | 79 | 1010.9 |
| 20260506224546 | 61 | 242 | 16.5 | 21.7 | 0.00 | 0.00 | 0.00 | 71 | 1010.5 |
| 20260506223053 | 61 | 227 | 9.6 | 15.6 | 0.00 | 0.00 | 0.00 | 68 | 1010.2 |
| 20260506221553 | 61 | 248 | 7.8 | 16.5 | 0.00 | 0.00 | 0.00 | 67 | 1010.2 |
| 20260506220056 | 60 | 250 | 8.7 | 17.4 | 0.00 | 0.00 | 0.00 | 67 | 1010.2 |
| 20260506214552 | 60 | 219 | 5.2 | 13.9 | 0.00 | 0.00 | 0.00 | 66 | 1010.0 |
| 20260506213105 | 60 | 222 | 9.6 | 13.9 | 0.00 | 0.00 | 0.00 | 67 | 1010.0 |
| 20260506211550 | 59 | 221 | 7.8 | 14.8 | 0.00 | 0.00 | 0.00 | 68 | 1010.0 |
| 20260506210047 | 58 | 213 | 7.0 | 12.2 | 0.00 | 0.00 | 0.00 | 71 | 1010.1 |
| 20260506204551 | 56 | 214 | 4.3 | 9.6 | 0.00 | 0.00 | 0.00 | 73 | 1010.0 |
| 20260506203050 | 55 | 249 | 3.5 | 7.0 | 0.00 | 0.00 | 0.00 | 72 | 1010.1 |
| 20260506201547 | 56 | 258 | 4.3 | 7.0 | 0.00 | 0.00 | 0.00 | 70 | 1010.1 |
| 20260506200051 | 58 | 231 | 5.2 | 8.7 | 0.00 | 0.00 | 0.00 | 69 | 1010.1 |
| 20260506194555 | 58 | 223 | 4.3 | 7.0 | 0.00 | 0.00 | 0.00 | 70 | 1010.1 |
| 20260506193057 | 58 | 196 | 3.5 | 6.1 | 0.00 | 0.00 | 0.00 | 71 | 1010.2 |
| 20260506191544 | 56 | 206 | 0.9 | 2.6 | 0.00 | 0.00 | 0.00 | 71 | 1010.4 |
| 20260506190052 | 56 | 206 | 0.9 | 2.6 | 0.00 | 0.00 | 0.00 | 70 | 1010.4 |
| 20260506184550 | 58 | 206 | 1.7 | 2.6 | 0.00 | 0.00 | 0.00 | 68 | 1010.1 |
| 20260506183051 | 58 | 206 | 1.7 | 4.3 | 0.00 | 0.00 | 0.00 | 67 | 1010.1 |
| 20260506181549 | 60 | 205 | 1.7 | 4.3 | 0.00 | 0.00 | 0.00 | 64 | 1010.0 |
| 20260506174550 | 63 | 201 | 3.5 | 6.1 | 0.00 | 0.00 | 0.00 | 61 | 1009.9 |
| 20260506173043 | 63 | 210 | 3.5 | 9.6 | 0.00 | 0.00 | 0.00 | 60 | 1010.0 |
| 20260506171557 | 64 | 217 | 3.5 | 7.8 | 0.00 | 0.00 | 0.00 | 59 | 1009.8 |
| 20260506170103 | 65 | 215 | 5.2 | 8.7 | 0.00 | 0.00 | 0.00 | 58 | 1009.8 |
| 20260506164551 | 66 | 213 | 7.0 | 11.3 | 0.00 | 0.00 | 0.00 | 56 | 1009.9 |
| 20260506163111 | 67 | 221 | 7.8 | 19.1 | 0.00 | 0.00 | 0.00 | 54 | 1009.8 |
| 20260506161545 | 67 | 238 | 9.6 | 16.5 | 0.00 | 0.00 | 0.00 | 52 | 1010.0 |
| 20260506160056 | 67 | 225 | 11.3 | 18.2 | 0.00 | 0.00 | 0.00 | 53 | 1010.1 |
| 20260506154615 | 68 | 235 | 12.2 | 17.4 | 0.00 | 0.00 | 0.00 | 52 | 1010.1 |
| 20260506153117 | 68 | 228 | 11.3 | 16.5 | 0.00 | 0.00 | 0.00 | 51 | 1010.2 |
| 20260506151558 | 70 | 239 | 11.3 | 19.1 | 0.00 | 0.00 | 0.00 | 50 | 1010.1 |
| 20260506150055 | 71 | 219 | 9.6 | 20.9 | 0.00 | 0.00 | 0.00 | 48 | 1010.3 |
| 20260506144548 | 71 | 207 | 8.7 | 17.4 | 0.00 | 0.00 | 0.00 | 48 | 1010.1 |
| 20260506143101 | 71 | 188 | 11.3 | 19.1 | 0.00 | 0.00 | 0.00 | 47 | 1010.4 |
| 20260506141549 | 71 | 237 | 11.3 | 19.1 | 0.00 | 0.00 | 0.00 | 47 | 1010.3 |
| 20260506140049 | 72 | 212 | 12.2 | 19.1 | 0.00 | 0.00 | 0.00 | 47 | 1010.2 |
| 20260506134546 | 74 | 217 | 12.2 | 21.7 | 0.00 | 0.00 | 0.00 | 45 | 1010.0 |
| 20260506133045 | 73 | 218 | 9.6 | 15.6 | 0.00 | 0.00 | 0.00 | 46 | 1010.1 |
| 20260506131550 | 73 | 221 | 10.4 | 16.5 | 0.00 | 0.00 | 0.00 | 47 | 1010.2 |
| 20260506130057 | 72 | 201 | 8.7 | 20.9 | 0.00 | 0.00 | 0.00 | 48 | 1010.1 |